Vertical_Velocity
-1 -1 -1 -3 3 5 5 3 -1 -8 0 -1 -1 13 10 25 6 -2 -8 -32 12 0 14 13 5 -2 -24 1 39 -9 23 13 -3 -11 -15 -4 -0 6 -6 8 12 7 -1
-3 -2 0 -1 3 4 3 4 -1 5 6 -1 -1 -8 2 -8 3 10 0 -4 -6 11 -0 -8 -13 -4 -5 -4 -2 -15 2 -30 38 -9 -26 -18 47 21 7 4 11 6 -1
-0 1 4 4 2 1 3 5 5 1 5 8 1 -3 -6 3 1 -1 -12 8 1 -4 -6 3 1 13 -12 -28 2 -10 -10 -8 -8 1 -31 7 -63 154 32 4 21 6 2
0 1 1 3 2 1 1 -2 -2 1 3 0 -1 1 1 -4 -2 2 2 -2 -5 2 2 0 4 -3 -10 -1 -2 -0 -5 0 -25 9 -3 -13 -22 15 -4 12 70 -51 81
-0 2 2 2 1 1 -1 -5 -5 -6 -5 -4 -2 -2 -5 -4 -3 -8 4 4 -3 -1 2 5 1 -5 1 -0 3 2 6 2 -2 5 -1 1 -7 -4 -5 -15 11 -4 -24
-6 -5 -5 -6 -6 -6 -5 -1 0 0 -2 -2 -3 -5 -2 -4 -4 -2 -8 -2 6 0 -5 -0 4 -1 6 4 2 1 1 1 3 4 2 -11 2 5 -1 7 11 -5 -7
-2 -1 1 1 1 0 -1 -3 -4 -5 -6 -4 -3 0 2 3 0 -1 -2 -6 -5 4 2 -2 -2 0 -2 1 6 2 2 -1 -5 -2 15 5 5 8 -12 11 7 -11 -2
-2 -2 -2 -1 -1 0 1 -2 -1 -2 -4 -4 -1 0 -0 -3 -0 3 1 -1 -4 -7 0 2 -4 -2 0 -0 -2 6 3 7 -4 4 7 6 -5 10 -3 10 -1 -1 6
-0 -1 -2 -3 -4 -3 -2 -1 -1 1 1 -0 -5 -5 -3 1 1 -0 0 2 3 0 -3 -3 1 -1 -4 -3 -5 -1 5 14 2 2 3 4 7 5 -3 4 -3 -10 6
-2 -2 -3 -2 -2 -3 -3 -4 -5 -4 -3 -3 -0 0 -3 -5 -3 -1 -2 -6 -1 2 6 3 -1 0 4 2 -4 -4 -1 1 -0 3 7 8 4 3 -1 -0 6 2 1
0 0 1 -1 -3 -3 -3 -6 -4 -2 -2 -4 -4 -1 -0 2 3 0 -2 -4 -5 -3 -0 6 4 -2 -4 -2 2 1 -6 1 4 -1 -2 -5 -2 2 3 -1 2 1 0
-4 -5 -4 -3 -3 -3 -3 -2 -2 -3 -3 -5 -7 -1 2 2 7 4 2 -0 -1 -7 0 -1 -1 4 2 -1 -2 -1 1 -2 -1 2 3 8 1 6 1 6 7 -2 -2
-2 -0 -0 -0 -4 -6 -7 -5 -4 -2 -4 -4 -8 -6 0 2 3 1 3 3 5 -1 -2 -2 0 -2 -3 -1 1 -1 -5 -3 -3 -1 4 7 9 2 -1 0 4 1 -2
-1 -3 -4 -4 -3 -3 -3 -6 -5 -5 -3 -6 -4 -3 -4 -1 -2 -0 -1 -0 3 3 -0 4 -2 -3 -0 -1 -1 0 -3 -1 -3 -2 -1 3 0 -1 5 2 1 1 3
-3 -3 -3 -4 -4 -2 0 -6 -2 3 -7 -11 -3 -7 -11 -3 -0 -4 -6 -3 -4 -4 -4 0 1 0 -1 -2 0 -1 0 -0 -2 -2 -2 4 7 2 3 7 2 4 1
-1 -2 -3 -4 -4 -5 -4 3 3 1 1 1 -1 -5 1 -4 -3 -1 -1 -0 0 -3 1 -2 -0 -0 0 0 -1 0 0 0 0 -0 -0 1 1 -0 0 -1 3 2 6
-2 -2 -1 -3 -4 -6 -3 -6 -10 18 3 2 1 1 2 -2 0 -0 -1 -1 -1 -1 -1 1 -0 -2 -2 -1 0 0 1 1 1 1 1 2 3 3 1 4 1 -2 -0
-3 -4 -4 -3 -2 -4 -5 -4 -6 -11 -15 2 10 0 0 1 2 1 -1 -1 0 5 1 -1 -1 0 0 -1 -0 -1 -0 0 1 1 1 1 1 -1 -2 0 -0 4 4
-0 -1 -2 -2 -2 -3 -3 -2 -0 -2 -4 -4 -3 7 0 3 1 2 2 -1 -3 1 2 3 1 2 2 1 0 0 -1 1 -0 0 1 0 1 3 4 4 3 3 5
-2 -2 -3 -4 -5 -4 -2 -3 -2 -1 -1 -3 -3 -4 -6 -6 -4 -2 1 -1 -1 0 -0 -0 2 2 1 1 2 2 1 2 2 2 3 3 2 2 1 0 2 5 6
-1 -2 -1 -0 -5 -5 -5 -3 -2 -2 -2 -1 -1 1 -1 -7 -6 -4 -3 0 -1 0 -0 0 1 2 2 1 1 1 1 -0 2 0 1 -0 -0 1 3 3 3 6 9
-2 -0 -2 -2 -3 -2 -3 -3 -3 -4 -2 -3 -1 3 1 2 -0 -0 0 -1 -0 -0 -0 -2 -1 -0 0 0 0 0 0 -0 0 2 1 -0 2 2 2 3 2 4 2
-2 -2 -0 -2 -2 -2 -2 -3 -3 -2 -1 0 -1 -3 -0 -1 0 -1 -0 0 -0 -1 -0 -1 -2 -1 -1 -1 -0 -0 0 0 0 2 -0 1 1 2 1 3 3 3 -0
-2 -3 -3 -1 -1 -2 -3 -4 -3 -2 -2 -1 -0 -0 -0 -1 -1 -0 -0 -0 1 1 2 1 0 0 1 0 -1 -0 -0 -1 -0 -0 -1 1 1 4 3 1 5 2 0
-2 -2 -2 -3 -1 -2 -2 -1 -2 -2 -2 -2 -1 -1 1 0 -0 1 1 0 0 -0 1 2 2 2 1 2 1 1 2 2 1 1 1 2 5 3 2 2 3 2 1
-0 -2 -2 -2 -0 -2 -3 -3 -4 -3 -3 -0 -1 0 -1 -1 -1 -1 -1 -0 0 0 1 2 1 2 2 0 -0 2 5 2 2 2 1 4 2 1 -1 -0 1 0 0
Height
3078 3075 3072 3070 3066 3064 3062 3061 3061 3062 3061 3060 3061 3059 3059 3056 3051 3050 3049 3050 3055 3053 3052 3052 3050 3051 3054 3055 3058 3062 3053 3055 3049 3044 3052 3055 3055 3057 3058 3057 3054 3051 3052
3077 3073 3070 3066 3063 3060 3058 3056 3056 3056 3055 3053 3050 3050 3044 3043 3042 3040 3040 3046 3048 3040 3039 3036 3035 3040 3040 3038 3038 3044 3042 3043 3035 3035 3037 3035 3029 3037 3039 3042 3040 3037 3038
3076 3072 3069 3065 3061 3057 3055 3052 3051 3050 3047 3044 3041 3038 3036 3032 3033 3029 3029 3028 3027 3027 3026 3023 3022 3022 3019 3023 3026 3029 3028 3026 3026 3024 3024 3018 3005 2998 3016 3022 3024 3023 3023
3075 3072 3068 3064 3060 3057 3053 3050 3047 3044 3040 3037 3035 3032 3029 3024 3022 3022 3022 3020 3018 3015 3012 3010 3007 3004 3008 3009 3011 3010 3010 3009 3015 3012 3007 3007 3007 3005 3007 3004 3002 3008 3005
3076 3071 3067 3063 3059 3055 3052 3048 3045 3041 3036 3033 3029 3025 3022 3018 3015 3013 3011 3009 3009 3007 3003 3000 2997 2996 2997 2996 2994 2995 2994 2993 2995 2996 2992 2994 2995 2997 2998 3001 3000 2995 3000
3075 3070 3067 3063 3059 3055 3051 3046 3042 3037 3032 3028 3024 3020 3016 3011 3007 3004 3002 2999 2996 2994 2994 2993 2991 2988 2988 2985 2982 2982 2979 2979 2980 2979 2980 2982 2982 2982 2980 2984 2984 2980 2986
3072 3068 3063 3059 3054 3050 3047 3043 3038 3033 3029 3024 3019 3014 3010 3005 3000 2997 2993 2991 2987 2983 2982 2981 2980 2978 2976 2975 2973 2970 2967 2964 2964 2968 2967 2965 2964 2963 2965 2970 2965 2966 2971
3069 3065 3060 3056 3051 3046 3041 3036 3033 3028 3022 3017 3012 3008 3003 2998 2993 2988 2985 2982 2979 2975 2971 2969 2967 2966 2964 2962 2962 2961 2957 2954 2955 2955 2952 2949 2952 2951 2953 2952 2950 2956 2959
3067 3062 3057 3052 3047 3043 3038 3032 3026 3020 3015 3011 3006 3000 2994 2990 2985 2980 2975 2973 2970 2967 2964 2959 2955 2953 2951 2950 2948 2947 2947 2947 2943 2940 2942 2937 2938 2936 2937 2938 2941 2945 2948
3064 3059 3054 3049 3043 3038 3032 3026 3020 3013 3008 3002 2997 2992 2986 2981 2976 2970 2965 2961 2959 2957 2953 2950 2947 2943 2939 2937 2934 2932 2932 2933 2933 2932 2928 2927 2924 2925 2928 2931 2932 2933 2935
3060 3055 3050 3045 3040 3034 3029 3021 3013 3007 3001 2995 2990 2985 2979 2973 2969 2963 2957 2952 2948 2945 2942 2939 2935 2931 2928 2924 2921 2920 2918 2918 2918 2915 2916 2916 2918 2918 2920 2921 2923 2923 2929
3056 3052 3047 3042 3035 3029 3022 3016 3009 3001 2995 2989 2984 2979 2972 2966 2960 2955 2950 2944 2940 2935 2931 2926 2923 2919 2916 2912 2910 2906 2904 2902 2901 2901 2903 2905 2907 2909 2909 2912 2914 2916 2920
3053 3048 3043 3038 3031 3025 3018 3011 3003 2995 2988 2982 2975 2969 2963 2957 2952 2946 2941 2936 2931 2926 2921 2916 2912 2907 2903 2899 2895 2893 2891 2889 2888 2888 2889 2892 2895 2897 2900 2901 2905 2910 2912
3049 3044 3038 3032 3026 3020 3012 3004 2996 2989 2982 2976 2969 2961 2954 2949 2943 2936 2931 2925 2920 2915 2910 2905 2901 2896 2891 2887 2883 2880 2878 2878 2878 2877 2877 2879 2881 2885 2888 2891 2894 2898 2901
3044 3039 3033 3027 3021 3014 3007 2999 2991 2984 2976 2970 2962 2953 2945 2939 2934 2928 2921 2915 2909 2903 2897 2893 2889 2886 2882 2877 2874 2871 2869 2867 2867 2867 2867 2868 2869 2871 2874 2878 2883 2887 2890
3040 3034 3028 3022 3015 3008 3000 2994 2988 2979 2973 2966 2958 2949 2941 2934 2926 2920 2914 2908 2902 2895 2889 2884 2880 2877 2873 2869 2866 2863 2861 2858 2856 2856 2857 2857 2859 2862 2865 2868 2873 2877 2881
3034 3028 3023 3016 3009 3001 2994 2985 2978 2975 2967 2962 2953 2944 2936 2928 2922 2915 2907 2901 2896 2888 2882 2877 2873 2869 2866 2862 2859 2856 2854 2851 2849 2848 2848 2850 2852 2855 2859 2862 2866 2871 2876
3028 3023 3017 3010 3003 2996 2988 2979 2971 2964 2957 2953 2948 2938 2931 2923 2916 2908 2900 2893 2887 2881 2874 2870 2866 2862 2859 2856 2853 2850 2849 2847 2845 2843 2842 2842 2844 2848 2852 2856 2861 2865 2871
3024 3018 3013 3006 2999 2991 2983 2974 2966 2958 2951 2944 2937 2933 2924 2917 2909 2901 2893 2885 2878 2873 2867 2863 2859 2856 2853 2850 2847 2845 2843 2842 2841 2839 2838 2838 2839 2842 2847 2852 2856 2862 2867
3019 3013 3007 3001 2994 2986 2978 2969 2961 2953 2946 2939 2931 2922 2914 2908 2901 2893 2886 2878 2872 2866 2861 2856 2853 2849 2846 2843 2841 2839 2838 2837 2837 2836 2835 2835 2836 2839 2843 2849 2854 2859 2863
3013 3008 3002 2996 2988 2981 2973 2964 2956 2948 2941 2934 2927 2918 2910 2900 2893 2886 2879 2872 2865 2860 2855 2851 2847 2844 2840 2837 2835 2833 2832 2832 2832 2832 2831 2831 2834 2837 2842 2848 2852 2856 2860
3007 3002 2996 2989 2983 2976 2968 2960 2952 2944 2936 2928 2921 2914 2906 2898 2890 2882 2875 2869 2864 2858 2853 2848 2843 2838 2834 2831 2829 2828 2827 2827 2828 2828 2828 2829 2833 2838 2842 2847 2851 2855 2858
3001 2995 2990 2984 2977 2970 2962 2955 2947 2939 2932 2924 2916 2908 2901 2894 2886 2879 2872 2866 2861 2856 2850 2845 2840 2835 2830 2826 2824 2822 2822 2822 2823 2824 2826 2829 2833 2838 2843 2848 2851 2854 2857
2995 2989 2984 2978 2971 2964 2956 2949 2942 2935 2928 2920 2912 2905 2897 2890 2882 2876 2869 2863 2858 2853 2848 2843 2837 2832 2828 2824 2821 2819 2818 2818 2820 2823 2827 2831 2835 2840 2844 2848 2851 2854 2857
2989 2984 2978 2972 2965 2958 2951 2944 2938 2931 2924 2916 2909 2901 2894 2887 2880 2873 2867 2861 2857 2852 2848 2842 2837 2832 2828 2823 2820 2818 2817 2818 2821 2825 2830 2834 2838 2842 2845 2849 2851 2854 2857
2983 2978 2973 2966 2960 2953 2946 2940 2933 2927 2920 2913 2905 2898 2891 2884 2878 2871 2866 2861 2857 2853 2850 2845 2840 2834 2830 2826 2823 2821 2821 2823 2826 2830 2833 2837 2840 2844 2847 2850 2852 2855 2859